,,,PA_Meas_PMT16A,,PR_Meas_QMR101_102,,RH_Meas_QMH101,,SR_Meas_QMS101,,TA_Meas_QMH101,,GenWind,,GenWind,
date,time,status,PA,status,PR,status,RH,status,SR,status,TA,status,DirAvg,status,SpdAvg,
2011-11-08, 00:00:04,VALID,1007.421,VALID,0.0,VALID,51.39,VALID,1044.436,VALID,32.218,VALID,182.0,VALID,1.779,
2011-11-08, 00:01:04,VALID,1007.402,VALID,0.0,VALID,51.215,VALID,1028.741,VALID,32.391,VALID,192.0,VALID,2.645,
2011-11-08, 00:02:04,VALID,1007.411,VALID,0.0,VALID,50.78,VALID,1031.992,VALID,32.647,VALID,201.0,VALID,2.336,
2011-11-08, 00:03:04,VALID,1007.426,VALID,0.0,VALID,51.215,VALID,1019.211,VALID,32.84,VALID,212.0,VALID,1.652,
2011-11-08, 00:04:04,VALID,1007.393,VALID,0.0,VALID,51.84,VALID,1022.126,VALID,33.116,VALID,259.0,VALID,0.656,
2011-11-08, 00:05:04,VALID,1007.372,VALID,0.0,VALID,48.157,VALID,1005.085,VALID,33.409,VALID,192.0,VALID,1.941,
2011-11-08, 00:06:04,VALID,1007.376,VALID,0.0,VALID,49.827,VALID,388.693,VALID,33.038,VALID,186.0,VALID,3.016,
2011-11-08, 00:07:04,VALID,1007.352,VALID,0.0,VALID,47.325,VALID,215.816,VALID,32.608,VALID,195.0,VALID,3.704,
2011-11-08, 00:08:04,VALID,1007.349,VALID,0.0,VALID,47.669,VALID,197.654,VALID,32.218,VALID,191.0,VALID,3.509,
2011-11-08, 00:09:04,VALID,1007.377,VALID,0.0,VALID,49.545,VALID,198.999,VALID,31.944,VALID,186.0,VALID,2.747,
2011-11-08, 00:10:04,VALID,1007.395,VALID,0.0,VALID,51.748,VALID,220.188,VALID,31.727,VALID,199.0,VALID,1.893,
2011-11-08, 00:11:04,VALID,1007.372,VALID,0.0,VALID,50.505,VALID,238.687,VALID,31.632,VALID,204.0,VALID,1.859,
2011-11-08, 00:12:04,VALID,1007.314,VALID,0.0,VALID,51.779,VALID,235.211,VALID,31.553,VALID,174.0,VALID,1.923,
2011-11-08, 00:13:04,VALID,1007.325,VALID,0.0,VALID,52.48,VALID,275.572,VALID,31.532,VALID,243.0,VALID,0.665,
2011-11-08, 00:14:04,VALID,1007.326,VALID,0.0,VALID,51.237,VALID,795.547,VALID,31.632,VALID,174.0,VALID,1.611,
2011-11-08, 00:15:04,VALID,1007.3,VALID,0.0,VALID,53.182,VALID,978.626,VALID,31.788,VALID,199.0,VALID,2.528,
2011-11-08, 00:16:04,VALID,1007.3,VALID,0.0,VALID,51.832,VALID,973.021,VALID,32.042,VALID,239.0,VALID,2.185,
2011-11-08, 00:17:04,VALID,1007.271,VALID,0.0,VALID,49.972,VALID,965.621,VALID,32.196,VALID,204.0,VALID,3.724,
2011-11-08, 00:18:04,VALID,1007.273,VALID,0.0,VALID,51.306,VALID,945.553,VALID,32.313,VALID,189.0,VALID,2.227,
2011-11-08, 00:19:04,VALID,1007.272,VALID,0.0,VALID,52.336,VALID,951.72,VALID,32.313,VALID,206.0,VALID,2.19,
2011-11-08, 00:20:04,VALID,1007.289,VALID,0.0,VALID,51.367,VALID,567.175,VALID,32.511,VALID,219.0,VALID,2.299,
2011-11-08, 00:21:04,VALID,1007.29,VALID,0.0,VALID,53.807,VALID,223.215,VALID,32.55,VALID,207.0,VALID,1.104,
2011-11-08, 00:22:04,VALID,1007.25,VALID,0.0,VALID,50.36,VALID,161.329,VALID,32.589,VALID,188.0,VALID,1.084,
2011-11-08, 00:23:04,VALID,1007.251,VALID,0.0,VALID,50.238,VALID,158.639,VALID,32.491,VALID,197.0,VALID,0.709,
2011-11-08, 00:24:04,VALID,1007.272,VALID,0.0,VALID,51.687,VALID,169.513,VALID,32.332,VALID,193.0,VALID,0.952,
2011-11-08, 00:25:04,VALID,1007.219,VALID,0.0,VALID,50.742,VALID,207.183,VALID,32.098,VALID,183.0,VALID,2.523,
2011-11-08, 00:26:04,VALID,1007.214,VALID,0.0,VALID,53.434,VALID,234.202,VALID,31.925,VALID,185.0,VALID,2.205,
2011-11-08, 00:27:04,VALID,1007.184,VALID,0.0,VALID,52.084,VALID,743.079,VALID,31.807,VALID,206.0,VALID,1.98,
2011-11-08, 00:28:04,VALID,1007.142,VALID,0.0,VALID,51.085,VALID,379.948,VALID,31.866,VALID,200.0,VALID,2.097,
2011-11-08, 00:29:04,VALID,1007.152,VALID,0.0,VALID,51.909,VALID,947.459,VALID,31.922,VALID,215.0,VALID,1.722,
2011-11-08, 00:30:04,VALID,1007.118,VALID,0.0,VALID,50.193,VALID,961.698,VALID,32.218,VALID,243.0,VALID,1.0,
2011-11-08, 00:31:04,VALID,1007.071,VALID,0.0,VALID,50.322,VALID,227.363,VALID,32.371,VALID,203.0,VALID,2.523,
2011-11-08, 00:32:04,VALID,1007.117,VALID,0.0,VALID,49.186,VALID,223.888,VALID,32.215,VALID,220.0,VALID,3.836,
2011-11-08, 00:33:04,VALID,1007.113,VALID,0.0,VALID,50.658,VALID,245.75,VALID,32.02,VALID,206.0,VALID,2.727,
2011-11-08, 00:34:04,VALID,1007.12,VALID,0.0,VALID,51.947,VALID,283.195,VALID,31.866,VALID,204.0,VALID,1.788,
2011-11-08, 00:35:04,VALID,1007.114,VALID,0.0,VALID,52.328,VALID,264.024,VALID,31.768,VALID,207.0,VALID,2.364,
2011-11-08, 00:36:04,VALID,1007.15,VALID,0.0,VALID,52.564,VALID,226.354,VALID,31.629,VALID,215.0,VALID,2.539,
2011-11-08, 00:37:04,VALID,1007.143,VALID,0.0,VALID,52.9,VALID,211.443,VALID,31.573,VALID,196.0,VALID,1.76,
2011-11-08, 00:38:04,VALID,1007.137,VALID,0.0,VALID,53.068,VALID,203.483,VALID,31.553,VALID,204.0,VALID,1.54,
2011-11-08, 00:39:04,VALID,1007.149,VALID,0.0,VALID,54.013,VALID,199.672,VALID,31.514,VALID,206.0,VALID,1.358,
2011-11-08, 00:40:04,VALID,1007.129,VALID,0.0,VALID,53.579,VALID,228.484,VALID,31.534,VALID,212.0,VALID,1.16,
2011-11-08, 00:41:04,VALID,1007.145,VALID,0.0,VALID,54.402,VALID,917.525,VALID,31.553,VALID,207.0,VALID,0.745,
2011-11-08, 00:42:04,VALID,1007.12,VALID,0.0,VALID,53.258,VALID,476.476,VALID,31.571,VALID,192.0,VALID,1.132,
2011-11-08, 00:43:04,VALID,1007.138,VALID,0.0,VALID,52.724,VALID,960.913,VALID,31.59,VALID,199.0,VALID,1.456,
2011-11-08, 00:44:04,VALID,1007.121,VALID,0.0,VALID,52.458,VALID,998.47,VALID,31.749,VALID,197.0,VALID,0.688,
2011-11-08, 00:45:04,VALID,1007.157,VALID,0.0,VALID,51.847,VALID,1003.179,VALID,32.02,VALID,217.0,VALID,1.581,
2011-11-08, 00:46:04,VALID,1007.104,VALID,0.0,VALID,48.645,VALID,571.099,VALID,32.296,VALID,195.0,VALID,2.27,
2011-11-08, 00:47:04,VALID,1007.104,VALID,0.0,VALID,50.658,VALID,978.851,VALID,32.374,VALID,189.0,VALID,1.331,
2011-11-08, 00:48:04,VALID,1007.095,VALID,0.0,VALID,49.766,VALID,950.486,VALID,32.53,VALID,210.0,VALID,2.578,
2011-11-08, 00:49:04,VALID,1007.099,VALID,0.0,VALID,51.588,VALID,939.724,VALID,32.628,VALID,215.0,VALID,0.945,
2011-11-08, 00:50:04,VALID,1007.061,VALID,0.0,VALID,47.013,VALID,887.031,VALID,32.745,VALID,204.0,VALID,1.81,
2011-11-08, 00:51:04,VALID,1007.034,VALID,0.0,VALID,47.562,VALID,883.78,VALID,32.686,VALID,211.0,VALID,1.953,
2011-11-08, 00:52:04,VALID,1007.035,VALID,0.0,VALID,48.782,VALID,914.386,VALID,32.804,VALID,228.0,VALID,1.797,
2011-11-08, 00:53:04,VALID,1006.998,VALID,0.0,VALID,48.79,VALID,903.848,VALID,32.901,VALID,203.0,VALID,2.244,
2011-11-08, 00:54:04,VALID,1007.006,VALID,0.0,VALID,47.081,VALID,885.013,VALID,32.999,VALID,225.0,VALID,2.051,
2011-11-08, 00:55:04,VALID,1006.974,VALID,0.0,VALID,47.478,VALID,883.892,VALID,33.175,VALID,212.0,VALID,1.323,
2011-11-08, 00:56:04,VALID,1006.94,VALID,0.0,VALID,46.433,VALID,874.586,VALID,33.214,VALID,148.0,VALID,1.602,
2011-11-08, 00:57:04,VALID,1006.924,VALID,0.0,VALID,49.186,VALID,672.112,VALID,33.253,VALID,227.0,VALID,1.668,
2011-11-08, 00:58:04,VALID,1006.924,VALID,0.0,VALID,46.814,VALID,642.739,VALID,33.136,VALID,208.0,VALID,2.59,
2011-11-08, 00:59:04,VALID,1006.934,VALID,0.0,VALID,47.798,VALID,181.958,VALID,32.921,VALID,213.0,VALID,1.096,
2011-11-08, 01:00:04,VALID,1006.881,VALID,0.0,VALID,48.385,VALID,185.77,VALID,32.686,VALID,200.0,VALID,3.217,
2011-11-08, 01:01:04,VALID,1006.926,VALID,0.0,VALID,49.11,VALID,201.465,VALID,32.315,VALID,222.0,VALID,0.837,
2011-11-08, 01:02:04,VALID,1006.941,VALID,0.0,VALID,50.429,VALID,225.457,VALID,32.176,VALID,228.0,VALID,1.088,
2011-11-08, 01:03:04,VALID,1006.949,VALID,0.0,VALID,53.007,VALID,840.953,VALID,32.178,VALID,193.0,VALID,0.561,
2011-11-08, 01:04:04,VALID,1006.921,VALID,0.0,VALID,51.192,VALID,821.109,VALID,32.279,VALID,242.0,VALID,1.372,
2011-11-08, 01:05:04,VALID,1006.917,VALID,0.0,VALID,51.054,VALID,811.916,VALID,32.471,VALID,208.0,VALID,1.001,
2011-11-08, 01:06:04,VALID,1006.88,VALID,0.0,VALID,51.07,VALID,804.741,VALID,32.745,VALID,240.0,VALID,1.216,
2011-11-08, 01:07:04,VALID,1006.84,VALID,0.0,VALID,45.617,VALID,647.111,VALID,32.862,VALID,215.0,VALID,2.175,
2011-11-08, 01:08:04,VALID,1006.806,VALID,0.0,VALID,46.876,VALID,768.977,VALID,33.019,VALID,242.0,VALID,1.324,
2011-11-08, 01:09:04,VALID,1006.806,VALID,0.0,VALID,48.027,VALID,323.78,VALID,33.175,VALID,240.0,VALID,1.499,
2011-11-08, 01:10:04,VALID,1006.799,VALID,0.0,VALID,46.532,VALID,174.11,VALID,33.253,VALID,206.0,VALID,1.716,
2011-11-08, 01:11:04,VALID,1006.764,VALID,0.0,VALID,46.944,VALID,161.105,VALID,33.158,VALID,192.0,VALID,1.673,
2011-11-08, 01:12:04,VALID,1006.739,VALID,0.0,VALID,47.287,VALID,183.415,VALID,32.862,VALID,225.0,VALID,2.114,
2011-11-08, 01:13:04,VALID,1006.749,VALID,0.0,VALID,49.979,VALID,715.499,VALID,32.53,VALID,187.0,VALID,2.365,
2011-11-08, 01:14:04,VALID,1006.736,VALID,0.0,VALID,49.735,VALID,243.171,VALID,32.413,VALID,203.0,VALID,2.387,
2011-11-08, 01:15:04,VALID,1006.752,VALID,0.0,VALID,50.299,VALID,614.486,VALID,32.315,VALID,205.0,VALID,2.839,
2011-11-08, 01:16:04,VALID,1006.722,VALID,0.0,VALID,51.192,VALID,185.994,VALID,32.159,VALID,187.0,VALID,2.255,
2011-11-08, 01:17:04,VALID,1006.722,VALID,0.0,VALID,51.359,VALID,192.384,VALID,32.02,VALID,201.0,VALID,2.504,
2011-11-08, 01:18:04,VALID,1006.726,VALID,0.0,VALID,51.672,VALID,167.832,VALID,31.942,VALID,220.0,VALID,1.843,
2011-11-08, 01:19:04,VALID,1006.727,VALID,0.0,VALID,51.954,VALID,166.711,VALID,31.824,VALID,209.0,VALID,2.614,
2011-11-08, 01:20:04,VALID,1006.729,VALID,0.0,VALID,53.441,VALID,165.926,VALID,31.766,VALID,231.0,VALID,1.314,
2011-11-08, 01:21:04,VALID,1006.688,VALID,0.0,VALID,53.098,VALID,159.648,VALID,31.685,VALID,215.0,VALID,1.56,
2011-11-08, 01:22:04,VALID,1006.718,VALID,0.0,VALID,52.221,VALID,161.554,VALID,31.551,VALID,249.0,VALID,1.428,
2011-11-08, 01:23:04,VALID,1006.674,VALID,0.0,VALID,51.603,VALID,181.734,VALID,31.514,VALID,252.0,VALID,1.414,
2011-11-08, 01:24:04,VALID,1006.67,VALID,0.0,VALID,52.77,VALID,194.402,VALID,31.473,VALID,177.0,VALID,0.435,
2011-11-08, 01:25:04,VALID,1006.618,VALID,0.0,VALID,54.097,VALID,204.268,VALID,31.512,VALID,341.0,VALID,0.886,
2011-11-08, 01:26:04,VALID,1006.586,VALID,0.0,VALID,53.19,VALID,560.897,VALID,31.512,VALID,283.0,VALID,1.419,
2011-11-08, 01:27:04,VALID,1006.586,VALID,0.0,VALID,52.808,VALID,206.174,VALID,31.532,VALID,251.0,VALID,2.202,
2011-11-08, 01:28:04,VALID,1006.552,VALID,0.0,VALID,53.35,VALID,270.526,VALID,31.553,VALID,232.0,VALID,1.246,
2011-11-08, 01:29:04,VALID,1006.566,VALID,0.0,VALID,54.059,VALID,768.641,VALID,31.61,VALID,197.0,VALID,2.043,
2011-11-08, 01:30:04,VALID,1006.584,VALID,0.0,VALID,52.946,VALID,258.643,VALID,31.688,VALID,204.0,VALID,2.004,
2011-11-08, 01:31:04,VALID,1006.565,VALID,0.0,VALID,52.877,VALID,268.396,VALID,31.649,VALID,223.0,VALID,2.106,
2011-11-08, 01:32:04,VALID,1006.604,VALID,0.0,VALID,54.41,VALID,818.643,VALID,31.707,VALID,212.0,VALID,1.046,
2011-11-08, 01:33:04,VALID,1006.56,VALID,0.0,VALID,52.435,VALID,813.934,VALID,31.961,VALID,201.0,VALID,1.365,
2011-11-08, 01:34:04,VALID,1006.555,VALID,0.0,VALID,51.977,VALID,810.907,VALID,32.235,VALID,292.0,VALID,1.867,
2011-11-08, 01:35:04,VALID,1006.493,VALID,0.0,VALID,51.443,VALID,790.502,VALID,32.569,VALID,306.0,VALID,0.743,
2011-11-08, 01:36:04,VALID,1006.488,VALID,0.0,VALID,49.804,VALID,239.135,VALID,32.743,VALID,239.0,VALID,2.266,
2011-11-08, 01:37:04,VALID,1006.453,VALID,0.0,VALID,49.567,VALID,233.978,VALID,32.743,VALID,208.0,VALID,1.506,
2011-11-08, 01:38:04,VALID,1006.469,VALID,0.0,VALID,48.942,VALID,217.61,VALID,32.703,VALID,194.0,VALID,1.28,
2011-11-08, 01:39:04,VALID,1006.518,VALID,0.0,VALID,49.072,VALID,704.4,VALID,32.743,VALID,268.0,VALID,1.511,
2011-11-08, 01:40:04,VALID,1006.517,VALID,0.0,VALID,48.233,VALID,696.889,VALID,32.799,VALID,221.0,VALID,1.638,
2011-11-08, 01:41:04,VALID,1006.51,VALID,0.0,VALID,49.933,VALID,683.435,VALID,32.957,VALID,272.0,VALID,0.847,
2011-11-08, 01:42:04,VALID,1006.527,VALID,0.0,VALID,48.05,VALID,652.829,VALID,33.055,VALID,228.0,VALID,1.934,
2011-11-08, 01:43:04,VALID,1006.516,VALID,0.0,VALID,47.958,VALID,692.741,VALID,32.955,VALID,238.0,VALID,1.713,
2011-11-08, 01:44:04,VALID,1006.449,VALID,0.0,VALID,49.095,VALID,682.538,VALID,32.899,VALID,268.0,VALID,1.95,
2011-11-08, 01:45:04,VALID,1006.471,VALID,0.0,VALID,47.981,VALID,671.776,VALID,32.645,VALID,224.0,VALID,2.299,
2011-11-08, 01:46:04,VALID,1006.441,VALID,0.0,VALID,49.186,VALID,182.406,VALID,32.664,VALID,271.0,VALID,1.453,
2011-11-08, 01:47:04,VALID,1006.464,VALID,0.0,VALID,49.766,VALID,671.439,VALID,32.628,VALID,211.0,VALID,1.832,
2011-11-08, 01:48:04,VALID,1006.508,VALID,0.0,VALID,51.939,VALID,645.541,VALID,32.569,VALID,203.0,VALID,1.038,
2011-11-08, 01:49:04,VALID,1006.564,VALID,0.0,VALID,50.513,VALID,664.264,VALID,32.471,VALID,199.0,VALID,2.342,
2011-11-08, 01:50:04,VALID,1006.585,VALID,0.0,VALID,50.368,VALID,681.417,VALID,32.335,VALID,216.0,VALID,2.809,
2011-11-08, 01:51:04,VALID,1006.556,VALID,0.0,VALID,50.421,VALID,410.33,VALID,32.198,VALID,208.0,VALID,3.351,
2011-11-08, 01:52:04,VALID,1006.54,VALID,0.0,VALID,51.695,VALID,213.686,VALID,31.944,VALID,203.0,VALID,2.567,
2011-11-08, 01:53:04,VALID,1006.552,VALID,0.0,VALID,52.671,VALID,185.994,VALID,31.788,VALID,239.0,VALID,0.739,
2011-11-08, 01:54:04,VALID,1006.501,VALID,0.0,VALID,52.602,VALID,173.437,VALID,31.749,VALID,197.0,VALID,1.527,
2011-11-08, 01:55:04,VALID,1006.5,VALID,0.0,VALID,53.373,VALID,172.877,VALID,31.69,VALID,199.0,VALID,2.343,
2011-11-08, 01:56:04,VALID,1006.56,VALID,0.0,VALID,53.662,VALID,175.231,VALID,31.673,VALID,257.0,VALID,2.276,
2011-11-08, 01:57:04,VALID,1006.564,VALID,0.0,VALID,55.05,VALID,177.137,VALID,31.573,VALID,241.0,VALID,1.721,
2011-11-08, 01:58:04,VALID,1006.601,VALID,0.0,VALID,54.6,VALID,192.496,VALID,31.495,VALID,238.0,VALID,0.809,
2011-11-08, 01:59:04,VALID,1006.602,VALID,0.0,VALID,54.517,VALID,257.858,VALID,31.417,VALID,250.0,VALID,1.377,
2011-11-08, 02:00:04,VALID,1006.6,VALID,0.0,VALID,54.128,VALID,286.222,VALID,31.319,VALID,214.0,VALID,1.334,
2011-11-08, 02:01:04,VALID,1006.586,VALID,0.0,VALID,54.7,VALID,300.685,VALID,31.341,VALID,243.0,VALID,2.379,
2011-11-08, 02:02:04,VALID,1006.582,VALID,0.0,VALID,55.752,VALID,310.663,VALID,31.356,VALID,270.0,VALID,1.618,
2011-11-08, 02:03:04,VALID,1006.534,VALID,0.0,VALID,55.05,VALID,283.756,VALID,31.414,VALID,275.0,VALID,1.124,
2011-11-08, 02:04:04,VALID,1006.584,VALID,0.0,VALID,55.454,VALID,363.58,VALID,31.434,VALID,222.0,VALID,2.416,
2011-11-08, 02:05:04,VALID,1006.624,VALID,0.0,VALID,55.805,VALID,444.861,VALID,31.512,VALID,245.0,VALID,0.939,
2011-11-08, 02:06:04,VALID,1006.655,VALID,0.0,VALID,57.361,VALID,660.228,VALID,31.59,VALID,277.0,VALID,2.609,
2011-11-08, 02:07:04,VALID,1006.645,VALID,0.0,VALID,56.507,VALID,558.542,VALID,31.649,VALID,217.0,VALID,1.594,
2011-11-08, 02:08:04,VALID,1006.675,VALID,0.0,VALID,56.278,VALID,638.254,VALID,31.768,VALID,318.0,VALID,1.6,
2011-11-08, 02:09:04,VALID,1006.694,VALID,0.0,VALID,56.248,VALID,627.828,VALID,31.671,VALID,256.0,VALID,2.251,
2011-11-08, 02:10:04,VALID,1006.681,VALID,0.0,VALID,56.309,VALID,596.548,VALID,31.571,VALID,247.0,VALID,1.879,
2011-11-08, 02:11:04,VALID,1006.675,VALID,0.0,VALID,57.582,VALID,567.736,VALID,31.551,VALID,223.0,VALID,1.299,
2011-11-08, 02:12:04,VALID,1006.686,VALID,0.0,VALID,55.821,VALID,553.497,VALID,31.571,VALID,275.0,VALID,1.399,
2011-11-08, 02:13:04,VALID,1006.722,VALID,0.0,VALID,56.431,VALID,561.906,VALID,31.649,VALID,282.0,VALID,0.839,
2011-11-08, 02:14:04,VALID,1006.684,VALID,0.0,VALID,55.653,VALID,572.893,VALID,31.671,VALID,228.0,VALID,2.25,
2011-11-08, 02:15:04,VALID,1006.686,VALID,0.0,VALID,55.874,VALID,459.996,VALID,31.671,VALID,208.0,VALID,0.993,
2011-11-08, 02:16:04,VALID,1006.726,VALID,0.0,VALID,56.911,VALID,466.386,VALID,31.749,VALID,212.0,VALID,1.314,
2011-11-08, 02:17:04,VALID,1006.751,VALID,0.0,VALID,55.348,VALID,485.782,VALID,31.668,VALID,241.0,VALID,1.795,
2011-11-08, 02:18:04,VALID,1006.732,VALID,0.0,VALID,55.912,VALID,528.609,VALID,31.573,VALID,220.0,VALID,1.355,
2011-11-08, 02:19:04,VALID,1006.762,VALID,0.0,VALID,56.438,VALID,489.257,VALID,31.651,VALID,287.0,VALID,0.932,
2011-11-08, 02:20:04,VALID,1006.771,VALID,0.0,VALID,55.752,VALID,515.828,VALID,31.788,VALID,226.0,VALID,0.836,
2011-11-08, 02:21:04,VALID,1006.809,VALID,0.0,VALID,55.226,VALID,511.119,VALID,31.905,VALID,274.0,VALID,1.33,
2011-11-08, 02:22:04,VALID,1006.806,VALID,0.0,VALID,53.281,VALID,499.123,VALID,31.944,VALID,263.0,VALID,1.807,
2011-11-08, 02:23:04,VALID,1006.824,VALID,0.0,VALID,53.418,VALID,501.141,VALID,31.903,VALID,243.0,VALID,1.689,
2011-11-08, 02:24:04,VALID,1006.806,VALID,0.0,VALID,54.089,VALID,494.078,VALID,31.907,VALID,275.0,VALID,2.693,
2011-11-08, 02:25:04,VALID,1006.819,VALID,0.0,VALID,54.006,VALID,462.462,VALID,31.807,VALID,233.0,VALID,2.532,
2011-11-08, 02:26:04,VALID,1006.88,VALID,0.0,VALID,55.485,VALID,480.4,VALID,31.651,VALID,257.0,VALID,2.118,
2011-11-08, 02:27:04,VALID,1006.935,VALID,0.0,VALID,56.019,VALID,486.006,VALID,31.651,VALID,265.0,VALID,0.888,
2011-11-08, 02:28:04,VALID,1006.926,VALID,0.0,VALID,55.393,VALID,479.391,VALID,31.69,VALID,244.0,VALID,1.344,
2011-11-08, 02:29:04,VALID,1006.88,VALID,0.0,VALID,55.691,VALID,467.844,VALID,31.768,VALID,257.0,VALID,1.306,
2011-11-08, 02:30:04,VALID,1006.942,VALID,0.0,VALID,55.66,VALID,454.39,VALID,31.846,VALID,241.0,VALID,1.568,
2011-11-08, 02:31:04,VALID,1006.924,VALID,0.0,VALID,55.302,VALID,446.655,VALID,31.632,VALID,258.0,VALID,1.741,
2011-11-08, 02:32:04,VALID,1006.924,VALID,0.0,VALID,55.454,VALID,432.641,VALID,31.514,VALID,241.0,VALID,0.711,
2011-11-08, 02:33:04,VALID,1006.995,VALID,0.0,VALID,56.713,VALID,430.735,VALID,31.536,VALID,234.0,VALID,1.971,
2011-11-08, 02:34:04,VALID,1006.995,VALID,0.0,VALID,57.102,VALID,357.525,VALID,31.553,VALID,188.0,VALID,1.259,
2011-11-08, 02:35:04,VALID,1006.989,VALID,0.0,VALID,56.034,VALID,183.976,VALID,31.475,VALID,197.0,VALID,1.538,
2011-11-08, 02:36:04,VALID,1007.031,VALID,0.0,VALID,57.361,VALID,225.794,VALID,31.361,VALID,275.0,VALID,1.471,
2011-11-08, 02:37:04,VALID,1007.06,VALID,0.0,VALID,57.765,VALID,402.37,VALID,31.143,VALID,239.0,VALID,1.827,
2011-11-08, 02:38:04,VALID,1006.988,VALID,0.0,VALID,59.321,VALID,411.115,VALID,31.046,VALID,190.0,VALID,2.464,
2011-11-08, 02:39:04,VALID,1007.048,VALID,0.0,VALID,58.749,VALID,386.787,VALID,31.085,VALID,231.0,VALID,1.612,
2011-11-08, 02:40:04,VALID,1007.032,VALID,0.0,VALID,56.751,VALID,400.128,VALID,31.182,VALID,273.0,VALID,1.691,
2011-11-08, 02:41:04,VALID,1007.046,VALID,0.0,VALID,56.827,VALID,403.043,VALID,31.224,VALID,224.0,VALID,1.705,
2011-11-08, 02:42:04,VALID,1006.993,VALID,0.0,VALID,58.36,VALID,289.025,VALID,31.202,VALID,218.0,VALID,1.737,
2011-11-08, 02:43:04,VALID,1006.995,VALID,0.0,VALID,58.68,VALID,285.549,VALID,31.104,VALID,226.0,VALID,0.614,
2011-11-08, 02:44:04,VALID,1007.013,VALID,0.0,VALID,58.268,VALID,223.552,VALID,31.107,VALID,229.0,VALID,1.933,
2011-11-08, 02:45:04,VALID,1007.048,VALID,0.0,VALID,58.589,VALID,352.705,VALID,30.987,VALID,225.0,VALID,1.113,
2011-11-08, 02:46:04,VALID,1007.065,VALID,0.0,VALID,57.407,VALID,367.616,VALID,30.87,VALID,230.0,VALID,2.297,
2011-11-08, 02:47:04,VALID,1007.07,VALID,0.0,VALID,58.307,VALID,350.575,VALID,30.872,VALID,241.0,VALID,1.198,
2011-11-08, 02:48:04,VALID,1007.108,VALID,0.0,VALID,59.267,VALID,348.893,VALID,30.946,VALID,274.0,VALID,1.811,
2011-11-08, 02:49:04,VALID,1007.084,VALID,0.0,VALID,58.512,VALID,352.256,VALID,30.965,VALID,213.0,VALID,1.928,
2011-11-08, 02:50:04,VALID,1007.125,VALID,0.0,VALID,58.589,VALID,345.754,VALID,30.985,VALID,222.0,VALID,0.875,
2011-11-08, 02:51:04,VALID,1007.111,VALID,0.0,VALID,58.101,VALID,352.817,VALID,31.043,VALID,233.0,VALID,1.471,
2011-11-08, 02:52:04,VALID,1007.102,VALID,0.0,VALID,57.879,VALID,345.754,VALID,31.043,VALID,206.0,VALID,0.709,
2011-11-08, 02:53:04,VALID,1007.128,VALID,0.0,VALID,56.774,VALID,342.727,VALID,31.161,VALID,266.0,VALID,1.191,
2011-11-08, 02:54:04,VALID,1007.143,VALID,0.0,VALID,57.125,VALID,341.157,VALID,31.239,VALID,195.0,VALID,0.853,
2011-11-08, 02:55:04,VALID,1007.183,VALID,0.0,VALID,56.141,VALID,331.403,VALID,31.375,VALID,262.0,VALID,0.952,
2011-11-08, 02:56:04,VALID,1007.162,VALID,0.0,VALID,56.286,VALID,326.47,VALID,31.395,VALID,201.0,VALID,0.594,
2011-11-08, 02:57:04,VALID,1007.144,VALID,0.0,VALID,53.586,VALID,324.004,VALID,31.473,VALID,225.0,VALID,1.671,
2011-11-08, 02:58:04,VALID,1007.147,VALID,0.0,VALID,54.089,VALID,319.968,VALID,31.473,VALID,246.0,VALID,1.077,
2011-11-08, 02:59:04,VALID,1007.136,VALID,0.0,VALID,53.235,VALID,312.793,VALID,31.414,VALID,218.0,VALID,1.041,
2011-11-08, 03:00:04,VALID,1007.119,VALID,0.0,VALID,52.29,VALID,310.999,VALID,31.434,VALID,225.0,VALID,1.197,
2011-11-08, 03:01:04,VALID,1007.138,VALID,0.0,VALID,51.443,VALID,310.102,VALID,31.278,VALID,226.0,VALID,2.068,
2011-11-08, 03:02:04,VALID,1007.069,VALID,0.0,VALID,50.986,VALID,310.102,VALID,31.161,VALID,192.0,VALID,2.609,
2011-11-08, 03:03:04,VALID,1007.096,VALID,0.0,VALID,52.633,VALID,306.851,VALID,31.026,VALID,206.0,VALID,1.832,
2011-11-08, 03:04:04,VALID,1007.087,VALID,0.0,VALID,52.244,VALID,301.806,VALID,30.987,VALID,206.0,VALID,1.402,
2011-11-08, 03:05:04,VALID,1007.069,VALID,0.0,VALID,52.892,VALID,294.631,VALID,30.987,VALID,188.0,VALID,2.372,
2011-11-08, 03:06:04,VALID,1007.099,VALID,0.0,VALID,50.635,VALID,292.613,VALID,30.89,VALID,218.0,VALID,2.561,
2011-11-08, 03:07:04,VALID,1007.127,VALID,0.0,VALID,52.9,VALID,290.034,VALID,30.831,VALID,212.0,VALID,1.521,
2011-11-08, 03:08:04,VALID,1007.115,VALID,0.0,VALID,53.152,VALID,286.783,VALID,30.87,VALID,210.0,VALID,1.31,
2011-11-08, 03:09:04,VALID,1007.099,VALID,0.0,VALID,52.732,VALID,261.109,VALID,30.85,VALID,233.0,VALID,1.461,
2011-11-08, 03:10:04,VALID,1007.08,VALID,0.0,VALID,52.785,VALID,183.64,VALID,30.792,VALID,163.0,VALID,0.701,
2011-11-08, 03:11:04,VALID,1007.095,VALID,0.0,VALID,54.227,VALID,125.453,VALID,30.714,VALID,268.0,VALID,1.029,
2011-11-08, 03:12:04,VALID,1007.049,VALID,0.0,VALID,55.523,VALID,179.491,VALID,30.616,VALID,191.0,VALID,1.149,
2011-11-08, 03:13:04,VALID,1007.07,VALID,0.0,VALID,54.814,VALID,228.484,VALID,30.538,VALID,254.0,VALID,1.45,
2011-11-08, 03:14:04,VALID,1007.063,VALID,0.0,VALID,55.76,VALID,218.394,VALID,30.401,VALID,225.0,VALID,1.187,
2011-11-08, 03:15:04,VALID,1007.02,VALID,0.0,VALID,55.699,VALID,172.877,VALID,30.343,VALID,246.0,VALID,0.845,
2011-11-08, 03:16:04,VALID,1007.021,VALID,0.0,VALID,57.399,VALID,132.965,VALID,30.304,VALID,211.0,VALID,2.395,
2011-11-08, 03:17:04,VALID,1006.982,VALID,0.0,VALID,57.315,VALID,91.371,VALID,30.226,VALID,241.0,VALID,1.361,
2011-11-08, 03:18:04,VALID,1006.966,VALID,0.0,VALID,57.399,VALID,77.021,VALID,30.167,VALID,225.0,VALID,1.676,
2011-11-08, 03:19:04,VALID,1006.963,VALID,0.0,VALID,57.369,VALID,60.653,VALID,30.128,VALID,234.0,VALID,1.52,
2011-11-08, 03:20:04,VALID,1006.978,VALID,0.0,VALID,58.566,VALID,54.15,VALID,30.109,VALID,201.0,VALID,1.611,
2011-11-08, 03:21:04,VALID,1006.994,VALID,0.0,VALID,58.055,VALID,55.159,VALID,30.091,VALID,219.0,VALID,1.08,
2011-11-08, 03:22:04,VALID,1007.043,VALID,0.0,VALID,58.314,VALID,59.868,VALID,30.07,VALID,200.0,VALID,1.296,
2011-11-08, 03:23:04,VALID,1007.018,VALID,0.0,VALID,59.283,VALID,59.419,VALID,30.067,VALID,191.0,VALID,0.5,
2011-11-08, 03:24:04,VALID,1007.049,VALID,0.0,VALID,58.543,VALID,59.307,VALID,30.106,VALID,201.0,VALID,0.843,
2011-11-08, 03:25:04,VALID,1007.088,VALID,0.0,VALID,58.078,VALID,49.666,VALID,30.128,VALID,223.0,VALID,1.094,
2011-11-08, 03:26:04,VALID,1007.091,VALID,0.0,VALID,56.293,VALID,45.63,VALID,30.089,VALID,212.0,VALID,2.334,
2011-11-08, 03:27:04,VALID,1007.152,VALID,0.0,VALID,57.94,VALID,43.724,VALID,29.989,VALID,260.0,VALID,0.774,
2011-11-08, 03:28:04,VALID,1007.147,VALID,0.0,VALID,57.536,VALID,41.93,VALID,29.952,VALID,223.0,VALID,0.834,
2011-11-08, 03:29:04,VALID,1007.182,VALID,0.0,VALID,57.33,VALID,39.8,VALID,29.894,VALID,303.0,VALID,1.087,
2011-11-08, 03:30:04,VALID,1007.176,VALID,0.0,VALID,57.567,VALID,37.67,VALID,29.816,VALID,219.0,VALID,1.168,
2011-11-08, 03:31:04,VALID,1007.205,VALID,0.0,VALID,57.201,VALID,35.54,VALID,29.699,VALID,204.0,VALID,1.358,
2011-11-08, 03:32:04,VALID,1007.243,VALID,0.0,VALID,58.352,VALID,33.97,VALID,29.64,VALID,199.0,VALID,0.743,